View Data : List Evapotranspiration (ETo ) Reports


 
Search Evapotranspiration Reports
Station Fields:
Location:
Date Range:
Start Date:   End Date:
Searched: Report date on 4/25/2017.
Showing 1 - 50 of 72 Records. <Back  Page   Next>
DateTimeStation NumberStation NameGaugeReadingRefill LevelEvap AmtView
4/25/2017  12:00 AM  MN-AA-5  East Bethel 3.1 NE 0.50  0.11   
4/25/2017  5:00 AM  NY-CQ-22  Fredonia 0.8 WNW 1.69  0.13   
4/25/2017  5:20 AM  WI-MC-4  Two Rivers 1.4 N 0.01  0.01   
4/25/2017  5:25 AM  NM-SF-70  Santa Fe 10.5 S 2.29  0.24   
4/25/2017  5:30 AM  IN-TN-1  Atlanta 4.4 W 1.45  0.15   
4/25/2017  5:30 AM  TX-KN-4  Boerne 5.1 NNW 2.80  0.18   
4/25/2017  5:50 AM  WA-SJ-28  Lopez Island 3.9 NNE 1.70  0.05   
4/25/2017  6:00 AM  CA-SJ-5  Lodi 1.0 NNW 4.28  0.08   
4/25/2017  6:00 AM  IN-PT-12  Valparaiso 4.3 SW 0.87  0.16   
4/25/2017  6:00 AM  KS-MP-42  McPherson 2.9 E 1.62  0.12   
4/25/2017  6:00 AM  MD-MG-54  Germantown 4.6 NNE 1.73  0.06   
4/25/2017  6:00 AM  VA-BD-9  Bedford 3.2 W 8.62 0.00 0.00   
4/25/2017  6:30 AM  OH-DR-1  Bradford 2.3 NW 2.20  0.13   
4/25/2017  6:30 AM  PA-MT-16  North Wales 1.3 WSW 0.68  0.07   
4/25/2017  6:30 AM  TX-ER-4  Stephenville 2.6 NNW 2.60  0.30   
4/25/2017  6:30 AM  WA-WC-52  Bellingham 2.3 S 1.52  0.05   
4/25/2017  6:46 AM  TN-PT-3  Byrdstown 2.8 SSW 4.70  0.00   
4/25/2017  6:50 AM  PA-CN-13  Boalsburg 0.4 E 1.15  0.05   
4/25/2017  7:00 AM  AZ-MR-326  Phoenix 6.3 SSW 2.09  0.24   
4/25/2017  7:00 AM  AZ-PN-50  Saddlebrooke 1.5 SW 4.44  0.23   
4/25/2017  7:00 AM  CA-RV-21  Riverside 2.6 E 8.40  0.10   
4/25/2017  7:00 AM  CA-SD-132  Descanso 3.7N 3.90  0.12   
4/25/2017  7:00 AM  CA-SN-100  Glen Ellen 1.9 NNW 1.37  0.07   
4/25/2017  7:00 AM  CA-TH-11  Red Bluff 5.1 NNW 1.59  0.09   
4/25/2017  7:00 AM  CO-LR-36  Timnath 4.1 NNE 0.75  0.24   
4/25/2017  7:00 AM  CO-LR-623  Fort Collins 6.1 SW 1.75  0.06   
4/25/2017  7:00 AM  CO-LG-6  Sterling 3.7 NNE 1.45  0.10   
4/25/2017  7:00 AM  IL-CP-1  Homer 2.0 N 1.04  0.22   
4/25/2017  7:00 AM  IL-GY-1  Carbon Hill 3.1 N 0.80  0.19   
4/25/2017  7:00 AM  IL-WF-14  El Paso 5.2 NNW 1.61  0.20   
4/25/2017  7:00 AM  IN-MR-13  Speedway 6.2 SSW 1.83  0.16   
4/25/2017  7:00 AM  IN-OW-9  Spencer 7.0 S 2.81  0.17   
4/25/2017  7:00 AM  IN-PT-133  Valparaiso 2.2 WNW 1.58  0.18   
4/25/2017  7:00 AM  IA-LN-7  Central City 6.7 W 1.25  0.17   
4/25/2017  7:00 AM  KS-SG-111  Wichita 5.9 WSW 2.17  0.15   
4/25/2017  7:00 AM  KY-FR-1  Frankfort 3.3 NE 2.20  0.10   
4/25/2017  7:00 AM  KY-ME-8  Harrodsburg 10.8 NW 1.35  0.12   
4/25/2017  7:00 AM  MD-HR-23  Norrisville 0.6 WSW 1.98  0.03   
4/25/2017  7:00 AM  MA-BR-23  Attleboro 0.9 ENE 0.74  0.11   
4/25/2017  7:00 AM  MI-AN-1  Wayland 2.0 W 1.03  0.14   
4/25/2017  7:00 AM  MN-MC-7  Silver Lake 1.7 N 0.70  0.08   
4/25/2017  7:00 AM  NH-MR-15  Dunbarton 0.3 N 0.72  0.16   
4/25/2017  7:00 AM  NJ-CM-38  Ocean City 1.6 SW 2.68  0.02   
4/25/2017  7:00 AM  NM-BR-183  Sandia Park 3.6 ESE 2.40  0.24   
4/25/2017  7:00 AM  OH-CK-1  Springfield 1.1 NNW 2.20  0.05   
4/25/2017  7:00 AM  OH-PB-1  Eaton 1.0 N 2.26  0.15   
4/25/2017  7:00 AM  OK-PY-9  Glencoe 3.0 W 2.94  0.16   
4/25/2017  7:00 AM  PA-MT-85  Skippack 2.6 ESE 1.89  0.08   
4/25/2017  7:00 AM  SC-CR-49  NWS Charleston SC 3.03  0.18   
4/25/2017  7:00 AM  SC-HR-67  Myrtle Beach 8.4 WNW 2.35  0.00